Location: De Har
(53.3413°N, 6.6858°E)
Time: 21:24:56
(UTC+00:00)

Meteor 1-14 Rocket - Pass Details

Date: 22 April 2026
Orbit: 832 x 918 km, 81.3° (Epoch: 21 May)

Event Time Altitude Azimuth Distance (km) Brightness Sun altitude
Rises 01:20:28 0° 346° (NNW) 3,502 8.2 -20.5°
Reaches altitude 10° 01:22:57 10° 348° (NNW) 2,546 7.4 -20.3°
Maximum altitude 01:28:45 78° 75° (ENE) 887 4.3 -19.9°
Enters shadow 01:32:41 21° 161° (SSE) 1,845 5.6 -19.6°
